Overview Statistics Trail Chart Weather Telemetry Raw packets
 

This is the latest recevied weather packets stored in our database for station/object KE8WMS. If no packets are shown the sender has not sent any weather packets the latest 10 day(s).

<< 104 105 106 107 108 109 110 >>
Time Temp. Humidity Pressure Rain* Wind** Luminosity Snow
1777031454 16.11° C 77% 1005.6 hPa 0 mm - 40 W/m² -
1777031149 16.11° C 78% 1005.7 hPa 0 mm - 39 W/m² -
1777030846 16.11° C 79% 1005.7 hPa 0 mm - 40 W/m² -
1777030541 15.56° C 80% 1005.5 hPa 0 mm - 44 W/m² -
1777030237 15.56° C 81% 1005.5 hPa 0 mm - 45 W/m² -
1777029933 15° C 82% 1006 hPa 0 mm - 46 W/m² -
1777029631 15° C 82% 1006.1 hPa 0 mm - 41 W/m² -
1777029328 15° C 83% 1006 hPa 0 mm - 35 W/m² -
1777029024 15° C 82% 1006.1 hPa 0 mm - 29 W/m² -
1777028723 14.44° C 83% 1005.9 hPa 0 mm - 25 W/m² -
1777028418 14.44° C 84% 1005.8 hPa 0 mm - 19 W/m² -
1777028114 14.44° C 85% 1005.9 hPa 0 mm - 15 W/m² -
1777027809 14.44° C 83% 1005.8 hPa 0 mm - 11 W/m² -
1777027505 14.44° C 83% 1006 hPa 0 mm - 7 W/m² -
1777027202 14.44° C 84% 1006.1 hPa 0 mm - 4 W/m² -
1777026899 14.44° C 85% 1005.9 hPa 0 mm - 2 W/m² -
1777026595 14.44° C 85% 1005.8 hPa 0 mm - 1 W/m² -
1777026295 14.44° C 86% 1005.9 hPa 0 mm - 1 W/m² -
1777025993 14.44° C 85% 1005.9 hPa 0 mm - 0 W/m² -
1777025690 14.44° C 86% 1005.8 hPa 0 mm - 0 W/m² -
1777025385 14.44° C 86% 1005.8 hPa 0 mm - 0 W/m² -
1777025081 14.44° C 85% 1006 hPa 0 mm - 0 W/m² -
1777024780 15° C 85% 1005.9 hPa 0 mm - 0 W/m² -
1777024477 15° C 84% 1005.8 hPa 0 mm - 0 W/m² -
1777024173 15° C 83% 1005.9 hPa 0 mm - 0 W/m² -

* Rain latest hour (hover to see other rain measurements)
** Current wind speed in m/s (hover to see current wind gust speed)